Time,B instrument,Bx,By,Bz,sigma B,Ion instrument,Status,Tp_par,Tp_perp,carrot,r_sun,clat,clong,earth_he_angle,n_p,vp_x,vp_y,vp_z,vth_p_par,vth_p_perp
1980-03-08 00:05:17,-1,nan,nan,nan,nan,1,3,nan,nan,1692,0.97095519,-1.2701374,62.602814,279.5325,nan,398.954,-19.1267,-13.2753,nan,nan
1980-03-08 00:08:26,1,2.2,3.25,-0.7,0.438748,1,1,69266.0,16662.1,1692,0.97093564,-1.4171247,62.657471,279.6145,8.68429,400.996,-9.24346,-16.3459,33.8157,16.5853
1980-03-08 00:16:05,1,2.8,2.9,-1.3,0.2,1,1,39114.9,19743.5,1692,0.9709394,-1.2707959,62.503052,279.5304,8.37028,401.11,-7.62191,-16.8342,25.4114,18.0538
1980-03-08 00:19:14,1,2.7,3.3,-0.3,0.0,1,1,86550.5,27525.6,1692,0.97091949,-1.4178009,62.553711,279.6123,7.84697,405.15,-11.4877,-14.1036,37.8001,21.317
1980-03-08 00:26:53,1,1.8,2.8,1.8,0.0,1,1,47725.9,56064.4,1692,0.97092354,-1.2714508,62.399353,279.52826,7.64455,405.934,-14.2818,-13.9866,28.0695,30.423
1980-03-08 00:29:54,1,1.95,2.9,1.55,0.308221,1,1,44499.8,30939.0,1692,0.97091919,-1.2716281,62.371368,279.52762,9.31355,400.295,-6.59328,-4.09545,27.1042,22.6001
1980-03-08 00:40:50,1,0.55,3.4,2.85,0.367423,1,1,67132.4,35748.7,1692,0.97088873,-1.4190922,62.354492,279.6084,8.96162,394.255,-8.44997,2.49361,33.2908,24.2934
1980-03-08 01:12:02,1,1.25,5.0,-0.3,0.269258,1,1,44804.3,25536.2,1692,0.97084177,-1.4210596,62.062988,279.60205,5.98461,392.97,2.54371,-5.49741,27.1968,20.5322
1980-03-08 01:13:23,1,1.52857,5.38571,-0.3,0.178429,1,1,39487.6,28467.1,1692,0.97084033,-1.4211216,62.047119,279.60181,6.36103,390.802,-1.90082,-4.62751,25.5322,21.6785
1980-03-08 01:14:44,1,1.41429,5.24286,-0.3,0.144279,1,1,35802.0,23801.8,1692,0.97083884,-1.4211826,62.035156,279.60156,6.42562,395.427,0.12483,-5.61159,24.3115,19.8227
1980-03-08 01:14:45,1,1.41429,5.24286,-0.3,0.144279,1,1,41145.7,21190.1,1692,0.97083884,-1.4211826,62.035156,279.60156,6.16058,394.536,-4.43963,-6.85633,26.0627,18.7036
1980-03-08 01:16:06,1,1.47143,5.27143,-0.185714,0.271804,1,1,47567.0,20556.4,1692,0.97083592,-1.4213057,62.023193,279.60132,6.36092,393.374,-2.01337,-7.57854,28.0228,18.4218
1980-03-08 01:17:27,1,1.45714,5.27143,-0.128571,0.279212,1,1,39267.1,23575.3,1692,0.97083443,-1.4213667,62.01123,279.60107,6.08492,394.318,-3.13794,-6.21996,25.4608,19.7282
1980-03-08 02:30:02,-1,nan,nan,nan,nan,1,3,nan,nan,1692,0.97072691,-1.4258556,61.333008,279.58691,nan,391.858,4.61786,3.79973,nan,nan
1980-03-08 02:31:23,1,2.14,5.38,-0.14,0.300666,1,1,32210.3,20623.6,1692,0.97072542,-1.4259167,61.321045,279.58667,8.59069,391.737,1.13883,5.20572,23.0598,18.4519
1980-03-08 02:32:32,1,2.16,5.42,-0.32,0.222711,1,1,34725.3,33251.0,1692,0.97072399,-1.4259777,61.309082,279.58643,6.40804,385.303,-1.94997,13.6569,23.9431,23.4294
1980-03-08 02:43:20,-1,nan,nan,nan,nan,1,3,nan,nan,1692,0.97070771,-1.4266548,61.209229,279.58423,nan,387.491,-0.194373,4.96022,nan,nan
1980-03-08 02:54:08,-1,nan,nan,nan,nan,1,3,nan,nan,1692,0.9706915,-1.427331,61.105469,279.58203,nan,386.543,-2.5362,9.6102,nan,nan
1980-03-08 03:04:56,-1,nan,nan,nan,nan,1,3,nan,nan,1692,0.97067672,-1.4279451,61.005859,279.58008,nan,387.499,-2.9348,8.68377,nan,nan
1980-03-08 03:15:44,-1,nan,nan,nan,nan,1,3,nan,nan,1692,0.97066045,-1.4286222,60.90625,279.57813,nan,385.126,-4.73642,10.3371,nan,nan
1980-03-08 03:26:32,-1,nan,nan,nan,nan,1,3,nan,nan,1692,0.97064418,-1.4292984,60.80249,279.57593,nan,382.581,-9.01224,5.44167,nan,nan
1980-03-08 03:37:20,-1,nan,nan,nan,nan,1,3,nan,nan,1692,0.9706279,-1.4299746,60.702637,279.57373,nan,379.058,-7.43242,3.02642,nan,nan
1980-03-08 03:48:08,-1,nan,nan,nan,nan,1,3,nan,nan,1692,0.97061163,-1.4306517,60.602783,279.57153,nan,381.264,-4.15032,-6.37863,nan,nan
1980-03-08 03:58:56,-1,nan,nan,nan,nan,1,3,nan,nan,1692,0.97059685,-1.4312668,60.499268,279.56958,nan,379.073,-7.89647,-6.75603,nan,nan
1980-03-08 04:09:44,-1,nan,nan,nan,nan,1,3,nan,nan,1692,0.97058052,-1.4319429,60.399414,279.56738,nan,383.742,-7.62668,5.28786,nan,nan
1980-03-08 04:20:32,-1,nan,nan,nan,nan,1,3,nan,nan,1692,0.97056419,-1.4326191,60.299805,279.56543,nan,383.387,-8.81695,1.43085,nan,nan
1980-03-08 04:31:20,-1,nan,nan,nan,nan,1,3,nan,nan,1692,0.97054785,-1.4332962,60.196045,279.56323,nan,386.352,-5.99042,7.14099,nan,nan
1980-03-08 04:42:08,-1,nan,nan,nan,nan,1,3,nan,nan,1692,0.97053152,-1.4339724,60.096191,279.56104,nan,389.483,-7.18285,6.57757,nan,nan
1980-03-08 04:52:56,-1,nan,nan,nan,nan,1,3,nan,nan,1692,0.97051668,-1.4345875,59.996582,279.55908,nan,387.133,-9.93405,10.0616,nan,nan
1980-03-08 05:03:44,-1,nan,nan,nan,nan,1,3,nan,nan,1692,0.97050035,-1.4352636,59.896729,279.55688,nan,386.245,-8.3806,7.55063,nan,nan
1980-03-08 05:14:32,-1,nan,nan,nan,nan,1,3,nan,nan,1692,0.97048396,-1.4359398,59.792969,279.55469,nan,389.129,-6.39126,9.23514,nan,nan
1980-03-08 05:25:20,-1,nan,nan,nan,nan,1,3,nan,nan,1692,0.97046757,-1.4366169,59.693359,279.55273,nan,388.03,-4.76111,5.38712,nan,nan
1980-03-08 05:36:08,-1,nan,nan,nan,nan,1,3,nan,nan,1692,0.97045118,-1.4372931,59.593506,279.55054,nan,385.067,0.351018,4.08747,nan,nan
1980-03-08 05:46:56,-1,nan,nan,nan,nan,1,3,nan,nan,1692,0.97043628,-1.4379082,59.48999,279.54858,nan,381.309,-2.47385,3.54605,nan,nan
1980-03-08 05:57:44,-1,nan,nan,nan,nan,1,3,nan,nan,1692,0.97041988,-1.4385843,59.390137,279.54639,nan,386.119,4.04432,6.27407,nan,nan
1980-03-08 06:08:32,-1,nan,nan,nan,nan,1,3,nan,nan,1692,0.97040349,-1.4392614,59.290283,279.54419,nan,386.405,-2.63489,5.43639,nan,nan
1980-03-08 06:19:20,-1,nan,nan,nan,nan,1,3,nan,nan,1692,0.97038704,-1.4399376,59.186523,279.54199,nan,385.229,4.28461,2.76704,nan,nan
1980-03-08 06:30:08,-1,nan,nan,nan,nan,1,3,nan,nan,1692,0.97037065,-1.4406147,59.086914,279.54004,nan,383.003,-3.26928,3.83695,nan,nan
1980-03-08 06:40:56,-1,nan,nan,nan,nan,1,3,nan,nan,1692,0.97035569,-1.4412298,58.987305,279.53809,nan,380.553,-0.452281,6.13459,nan,nan
1980-03-08 06:51:44,-1,nan,nan,nan,nan,1,3,nan,nan,1692,0.97033924,-1.441906,58.883545,279.53589,nan,382.756,-2.74656,11.2244,nan,nan
1980-03-08 07:02:32,-1,nan,nan,nan,nan,1,3,nan,nan,1692,0.97032279,-1.4425831,58.783691,279.53369,nan,378.445,-2.73296,8.81818,nan,nan
1980-03-08 07:33:26,-1,nan,nan,nan,nan,1,3,nan,nan,1692,0.97027636,-1.4444895,58.496338,279.52759,nan,380.621,-1.53638,19.9064,nan,nan
1980-03-08 07:40:11,1,1.55714,1.97143,3.22857,0.347586,1,1,46285.1,50711.7,1692,0.97026587,-1.4449205,58.432617,279.52637,13.649,375.819,-5.11878,15.9314,27.6426,28.9342
1980-03-08 07:41:32,1,1.47143,2.47143,3.28571,0.324509,1,1,44065.0,41153.7,1692,0.97026432,-1.4449816,58.420654,279.52612,13.193,375.753,-4.49889,13.8122,26.9715,26.0653
1980-03-08 07:42:53,1,2.2,1.25,4.3,0.259808,1,1,32858.6,52603.2,1692,0.97026283,-1.4450436,58.408691,279.52588,12.3263,380.13,-9.02978,21.4921,23.2907,29.4689
1980-03-08 07:44:15,1,1.81429,1.14286,4.21429,0.211891,1,1,37915.3,48315.9,1692,0.97025985,-1.4451666,58.392578,279.52539,12.7041,378.296,-6.96502,20.543,25.0187,28.2425
1980-03-08 07:45:36,1,2.38571,1.6,4.2,0.467298,1,1,53308.0,49280.5,1692,0.97025836,-1.4452276,58.380859,279.52539,12.1305,377.053,-9.84405,16.7653,29.6657,28.523
1980-03-08 07:48:18,-1,nan,nan,nan,nan,1,4,nan,nan,1692,0.97025383,-1.4454126,58.356689,279.52466,nan,nan,nan,nan,nan,nan
1980-03-08 07:49:39,1,2.25714,2.54286,4.11429,0.316872,1,1,43022.2,47250.3,1692,0.97025234,-1.4454737,58.344727,279.52441,11.8891,377.691,-6.33345,18.235,26.6504,27.9293
1980-03-08 07:51:00,1,2.42857,1.38571,4.2,0.178429,1,1,48989.3,50890.8,1692,0.97024935,-1.4455967,58.332764,279.52417,12.7455,377.206,-10.4135,17.505,28.4386,28.9853
1980-03-08 07:52:21,1,2.175,1.2,4.35,0.315238,1,1,47922.5,46378.3,1692,0.97024786,-1.4456587,58.316895,279.52393,12.2344,377.322,-8.87295,19.1131,28.1273,27.6704
1980-03-08 07:53:42,1,2.97143,1.94286,3.75714,0.318158,1,1,43226.4,50169.8,1692,0.97024637,-1.4457197,58.304932,279.52368,12.2408,379.166,-6.98853,15.1569,26.7136,28.7792
1980-03-08 07:55:03,1,3.02857,1.34286,4.41429,0.320713,1,1,38925.7,42681.7,1692,0.97024333,-1.4458427,58.292969,279.52344,11.2613,379.194,-8.14509,18.6954,25.3499,26.5448
1980-03-08 07:56:24,1,2.82857,0.771429,4.14286,0.308386,1,1,47465.2,49872.7,1692,0.97024184,-1.4459047,58.281006,279.52319,11.9575,379.104,-10.2183,19.4298,27.9927,28.6939
1980-03-08 07:57:45,1,2.95714,0.485714,4.2,0.24661,1,1,38911.2,45338.2,1692,0.97024035,-1.4459658,58.269043,279.52295,11.5044,380.599,-10.3521,17.1576,25.3452,27.3584
1980-03-08 07:59:06,1,1.25714,1.62857,3.81429,0.34641,1,1,41244.0,52054.2,1692,0.97023737,-1.4460888,58.256836,279.52246,13.2407,374.159,-6.98575,17.4573,26.0939,29.3147
1980-03-08 08:00:27,1,1.2,1.64286,3.84286,0.205039,1,1,37696.8,47645.7,1692,0.97023588,-1.4461508,58.241211,279.52246,12.7271,375.273,-6.8517,18.1578,24.9465,28.0459
1980-03-08 08:01:48,1,1.18571,1.51429,3.84286,0.357428,1,1,45397.5,51574.4,1692,0.97023433,-1.4462118,58.229248,279.52222,13.4999,374.237,-6.1537,17.9715,27.3762,29.1793
1980-03-08 08:03:09,1,1.375,1.325,4.0375,0.231503,1,1,41328.3,47492.0,1692,0.97023135,-1.4463348,58.217041,279.52173,12.8422,374.825,-7.38193,17.5215,26.1205,28.0006
1980-03-08 08:04:30,1,1.34286,1.2,4.01429,0.274048,1,1,44679.6,52173.4,1692,0.97022986,-1.4463968,58.205078,279.52148,13.1832,375.172,-8.5632,17.1466,27.1589,29.3483
1980-03-08 08:05:51,1,1.64286,1.34286,3.88571,0.298294,1,1,38056.5,44426.3,1692,0.97022831,-1.4464579,58.193359,279.52148,12.6291,376.551,-7.02477,18.6776,25.0653,27.0818
1980-03-08 08:07:12,1,1.4,1.32857,4.11429,0.239898,1,1,40703.2,51735.9,1692,0.97022533,-1.4465809,58.181152,279.521,12.7182,377.332,-7.44984,16.0234,25.9222,29.225
1980-03-08 08:08:33,1,0.985714,1.15714,3.5,0.208982,1,1,42556.9,44036.2,1692,0.97022384,-1.4466429,58.165283,279.52075,13.3977,374.627,-6.41205,15.8881,26.5059,26.9627
1980-03-08 08:09:54,1,0.971429,1.28571,3.27143,0.333197,1,1,44464.6,47371.9,1692,0.97022235,-1.4467039,58.15332,279.52051,14.2409,373.767,-7.44,14.0655,27.0935,27.9652
1980-03-08 08:11:15,1,0.55,2.45,2.56667,0.311805,1,1,44999.2,44679.7,1692,0.97021931,-1.4468269,58.141357,279.52026,13.6898,372.477,-5.18793,11.8101,27.2559,27.159
1980-03-08 08:12:36,1,0.685714,2.22857,3.32857,0.328882,1,1,52231.2,45632.4,1692,0.97021782,-1.4468889,58.129395,279.52002,14.2481,371.988,-6.67894,11.5296,29.3645,27.447
1980-03-08 08:13:57,1,0.942857,2.28571,2.9,0.343452,1,1,43713.6,46898.5,1692,0.97021633,-1.44695,58.117432,279.51978,13.1339,373.824,-5.55674,14.6333,26.8637,27.8251
1980-03-08 08:15:18,1,0.685714,1.8,3.21429,0.357999,1,1,47685.3,46593.1,1692,0.97021329,-1.447073,58.105469,279.51953,13.7708,373.785,-8.01847,11.8943,28.0576,27.7344
1980-03-08 08:16:39,1,0.957143,1.67143,3.61429,0.302372,1,1,44665.7,43901.0,1692,0.9702118,-1.447135,58.0896,279.51929,13.2331,374.06,-6.51193,13.9264,27.1547,26.9212
1980-03-08 08:18:00,1,0.757143,3.1,4.02857,0.352831,1,1,44632.3,47009.7,1692,0.97020882,-1.447257,58.077393,279.5188,11.618,371.91,-0.618661,16.8883,27.1445,27.8581
1980-03-08 08:19:21,1,1.54286,2.62857,4.08571,0.338062,1,1,40310.3,37296.6,1692,0.97020727,-1.447319,58.06543,279.51855,12.5504,374.434,-4.79096,15.8533,25.7968,24.8138
1980-03-08 08:20:42,1,1.2,2.6,3.62857,0.197949,1,1,44880.1,47887.0,1692,0.97020578,-1.447381,58.053711,279.51855,12.67,373.631,-2.31891,15.0632,27.2198,28.1168
1980-03-08 08:22:03,1,1.15714,2.57143,3.87143,0.21571,1,1,39808.0,40833.9,1692,0.9702028,-1.447504,58.041504,279.51807,11.8468,374.442,-4.12028,15.1083,25.6356,25.9638
1980-03-08 08:23:24,1,1.11429,2.11429,3.91429,0.401019,1,1,47387.3,48402.3,1692,0.97020131,-1.4475651,58.029541,279.51782,12.7106,374.592,-5.05493,16.5198,27.9698,28.2677
1980-03-08 08:24:45,1,0.971429,2.41429,4.15714,0.277746,1,1,34316.3,38723.5,1692,0.97019976,-1.4476271,58.013672,279.51758,11.9495,374.212,-4.94658,17.3382,23.8017,25.284
1980-03-08 08:26:06,1,1.22857,2.71429,4.54286,0.244949,1,1,44633.9,46228.9,1692,0.97019678,-1.4477501,58.001709,279.51733,11.3067,373.457,-3.44799,19.0607,27.145,27.6258
1980-03-08 08:27:27,1,1.28571,2.07143,4.3,0.312332,1,1,35150.9,43288.6,1692,0.97019529,-1.4478111,57.989746,279.51709,11.6353,375.537,-5.92466,19.4835,24.0894,26.7328
1980-03-08 08:28:48,1,1.02857,2.04286,4.3,0.156492,1,1,40047.2,48806.6,1692,0.97019374,-1.4478731,57.977783,279.51685,11.512,373.988,-5.383,20.012,25.7125,28.3855
1980-03-08 08:30:09,1,1.1,2.05714,4.27143,0.30034,1,1,32086.5,41391.5,1692,0.97019076,-1.4479961,57.96582,279.5166,11.2971,374.036,-4.35986,20.5082,23.0154,26.1405
1980-03-08 08:31:30,1,1.0,2.02857,3.65714,0.352831,1,1,47655.7,51730.3,1692,0.97018927,-1.4480572,57.953857,279.51636,12.3039,373.147,-6.01088,15.5074,28.0489,29.2234
1980-03-08 08:32:51,1,1.45714,2.38571,2.82857,0.396412,1,1,47399.4,44630.9,1692,0.97018778,-1.4481192,57.937988,279.51611,13.1846,372.484,-7.51069,12.0977,27.9733,27.1441
1980-03-08 08:34:12,1,1.47143,1.64286,4.12857,0.339267,1,1,44176.8,55389.7,1692,0.97018474,-1.4482422,57.925781,279.51563,11.409,375.754,-8.0246,19.1959,27.0057,30.2394
1980-03-08 08:35:33,1,1.51429,1.98571,4.02857,0.253948,1,1,46162.5,49022.0,1692,0.97018325,-1.4483032,57.914063,279.51563,11.8959,374.64,-5.26069,15.9454,27.6059,28.4481
1980-03-08 08:36:54,1,1.25714,2.0,4.25714,0.305728,1,1,46894.8,52514.5,1692,0.97018176,-1.4483652,57.9021,279.51538,11.4998,374.284,-5.94019,18.391,27.824,29.4441
1980-03-08 08:38:15,1,0.714286,2.2,4.01429,0.328882,1,1,59139.4,48909.7,1692,0.97017872,-1.4484882,57.889893,279.51489,11.5561,373.042,-4.39173,16.5729,31.2461,28.4155
1980-03-08 08:39:36,1,0.785714,2.21429,4.98571,0.343452,1,1,63057.6,52880.6,1692,0.97017723,-1.4485493,57.87793,279.51465,11.867,372.275,-5.93541,19.3268,32.2646,29.5465
1980-03-08 08:40:57,1,0.714286,1.6,4.12857,0.307724,1,1,57549.9,49866.0,1692,0.97017574,-1.4486113,57.862305,279.51465,12.4712,372.453,-5.99989,15.5423,30.8234,28.692
1980-03-08 08:42:18,1,0.757143,1.67143,4.24286,0.247436,1,1,63751.4,55513.2,1692,0.9701727,-1.4487343,57.850098,279.51416,12.7355,371.819,-9.05129,15.5331,32.4416,30.273
1980-03-08 08:43:39,1,0.766667,2.03333,3.63333,0.326599,1,1,59179.3,50191.0,1692,0.97017121,-1.4487953,57.838135,279.51392,12.8977,372.006,-6.05958,14.0386,31.2567,28.7853
1980-03-08 08:45:00,1,0.628571,2.31429,3.44286,0.261861,1,1,58191.8,54187.3,1692,0.97016823,-1.4489183,57.826172,279.51367,13.0996,369.481,-6.00676,13.2151,30.9948,29.9093
1980-03-08 08:46:21,1,1.6,1.72857,3.85714,0.259513,1,1,42251.9,44825.8,1692,0.97016674,-1.4489803,57.814209,279.51343,12.0676,374.809,-6.2344,16.3875,26.4108,27.2033
1980-03-08 08:47:42,1,1.11429,1.95714,3.71429,0.296235,1,1,58229.5,53543.5,1692,0.97016519,-1.4490414,57.802246,279.51318,13.1978,371.805,-7.18639,11.8677,31.0048,29.7311
1980-03-08 08:49:03,1,0.671429,2.54286,1.81429,0.776439,1,1,60125.8,42285.8,1692,0.97016221,-1.4491644,57.786133,279.5127,13.1728,370.593,-3.39107,4.21967,31.5056,26.4214
1980-03-08 08:50:24,1,-1.27143,2.0,-0.914286,0.466424,1,1,55696.8,53275.5,1692,0.97016072,-1.4492264,57.774414,279.5127,12.4414,373.608,-6.6332,12.57,30.3231,29.6566
1980-03-08 08:51:45,1,-1.32857,2.74286,-1.54286,0.30439,1,1,71301.5,52689.3,1692,0.97015917,-1.4492874,57.762451,279.51245,12.0374,369.865,-3.29509,6.4138,34.3089,29.493
1980-03-08 08:53:06,1,-1.51429,2.17143,-1.65714,0.261861,1,1,49373.6,52039.1,1692,0.97015619,-1.4494104,57.750244,279.51196,12.3172,369.244,-3.57539,8.6393,28.5499,29.3105
1980-03-08 08:54:27,1,-1.22857,3.22857,-0.957143,0.379043,1,1,50831.2,47118.2,1692,0.9701547,-1.4494724,57.738281,279.51172,11.2338,370.753,-0.955787,12.2076,28.9683,27.8902
1980-03-08 08:55:48,1,-0.242857,3.85714,-0.1,0.254751,1,1,56466.9,46799.8,1692,0.97015321,-1.4495335,57.726563,279.51172,11.7606,373.079,2.52016,11.7902,30.532,27.7958
1980-03-08 08:57:09,1,-0.114286,4.3,0.885714,0.353986,1,1,49721.7,45398.7,1692,0.97015017,-1.4496565,57.710449,279.51123,10.4377,370.68,0.833433,11.3668,28.6504,27.3766
1980-03-08 08:58:30,1,0.585714,3.82857,2.65714,0.414039,1,1,58406.1,55110.6,1692,0.97014868,-1.4497185,57.698486,279.51099,11.6365,377.431,0.400493,19.1439,31.0518,30.1631
1980-03-08 08:59:51,1,1.78571,4.28571,4.67143,0.323249,1,1,52256.7,42307.7,1692,0.97014719,-1.4497795,57.686523,279.51074,6.13588,371.733,-6.98685,15.5468,29.3717,26.4282
1980-03-08 09:01:12,1,1.32857,4.15714,5.0,0.305059,1,1,88201.7,36541.5,1692,0.97014415,-1.4499025,57.674561,279.5105,6.91882,372.161,-2.92259,12.4605,38.159,24.5613
1980-03-08 09:02:33,1,1.34286,4.34286,4.5,0.357428,1,1,51187.5,42289.5,1692,0.97014266,-1.4499645,57.662598,279.51025,8.32658,371.138,-4.00033,13.9313,29.0697,26.4225
1980-03-08 09:03:54,1,1.64286,4.91429,4.21429,0.480221,1,1,54462.7,46449.4,1692,0.97014117,-1.4500256,57.650635,279.51001,8.14244,371.458,2.4683,10.9968,29.9852,27.6916
1980-03-08 09:05:15,1,1.42857,5.07143,4.55714,0.274048,1,1,50934.1,46403.4,1692,0.97013813,-1.4501486,57.638672,279.50977,6.54558,368.725,-6.1527,7.5918,28.9976,27.6779
1980-03-08 09:06:36,1,1.22857,4.92857,4.32857,0.303046,1,1,60403.0,41398.4,1692,0.97013664,-1.4502106,57.622803,279.50952,7.05112,371.857,-1.71408,7.60332,31.5782,26.1427
1980-03-08 09:07:57,1,1.54286,5.32857,4.32857,0.312984,1,1,51583.4,41179.2,1692,0.97013509,-1.4502716,57.61084,279.50928,6.50064,369.324,-5.62329,10.1221,29.1819,26.0733
1980-03-08 09:09:18,1,1.44286,5.21429,4.21429,0.305728,1,1,64164.0,42734.0,1692,0.97013211,-1.4503946,57.598633,279.50879,7.15497,369.546,-1.12784,10.502,32.5464,26.561
1980-03-08 09:10:39,1,1.11429,5.15714,4.5,0.202031,1,1,50345.2,40436.3,1692,0.97013062,-1.4504566,57.586914,279.50879,6.76296,372.668,-4.82428,11.2093,28.8295,25.8371
1980-03-08 09:12:00,1,1.22857,5.21429,4.5,0.221313,1,1,63334.9,37693.1,1692,0.97012758,-1.4505796,57.574707,279.5083,7.41588,372.066,0.987813,10.9618,32.3355,24.9453
1980-03-08 09:13:21,1,1.42857,5.28571,4.5,0.363093,1,1,41846.2,38658.1,1692,0.97012609,-1.4506407,57.562744,279.50806,7.28484,372.255,-2.73003,10.4597,26.2837,25.2626
1980-03-08 09:14:42,1,1.55714,5.25714,4.9,0.24908,1,1,58885.5,34627.5,1692,0.97012454,-1.4507027,57.546875,279.50781,6.04673,371.379,-0.358856,9.94453,31.179,23.9094
1980-03-08 09:16:03,1,1.5,5.35714,4.55714,0.231234,1,1,48356.4,38347.7,1692,0.97012156,-1.4508257,57.534912,279.50757,5.97897,371.692,-7.02853,12.7247,28.2543,25.161
1980-03-08 09:17:24,1,1.64286,5.74286,4.67143,0.264189,1,1,63020.1,23987.6,1692,0.97012001,-1.4508867,57.522949,279.50732,4.81166,372.663,0.681444,10.8586,32.255,19.8999
1980-03-08 09:18:45,1,0.0428571,5.92857,4.37143,0.347586,1,1,48944.4,32846.8,1692,0.97011852,-1.4509487,57.510986,279.50708,5.21521,378.943,-11.7151,14.5795,28.4256,23.2865
1980-03-08 09:20:06,1,0.857143,5.52857,4.27143,0.252336,1,1,69286.3,28968.8,1692,0.97011554,-1.4510717,57.499023,279.50684,5.55522,374.413,1.48685,11.9303,33.8206,21.8687
1980-03-08 09:21:27,1,1.02857,5.72857,4.15714,0.289264,1,1,37766.1,29425.9,1692,0.97011399,-1.4511328,57.487061,279.50659,4.51313,371.443,-10.8935,11.681,24.9694,22.0406
1980-03-08 09:22:48,1,1.2,5.7,4.55714,0.139971,1,1,55143.2,31147.8,1692,0.9701125,-1.4511948,57.471191,279.50635,4.72029,372.383,-4.03462,9.55353,30.172,22.6763
1980-03-08 09:24:09,1,1.51429,5.78571,4.38571,0.228571,1,1,37464.9,34506.5,1692,0.97010946,-1.4513178,57.458984,279.50586,4.51946,370.735,-10.3888,11.3446,24.8697,23.8676
1980-03-08 09:25:30,1,1.42857,5.82857,4.27143,0.298294,1,1,61444.4,27068.1,1692,0.97010797,-1.4513788,57.447266,279.50586,4.92679,371.949,-2.23369,10.0023,31.8492,21.1391
1980-03-08 09:26:51,1,1.34286,5.74286,4.15714,0.224063,1,1,35562.3,34189.4,1692,0.97010648,-1.4514408,57.435303,279.50562,5.99591,371.471,-6.55378,12.6453,24.23,23.7577
1980-03-08 09:28:12,1,1.28571,5.97143,4.3,0.560976,1,1,67379.3,34270.8,1692,0.97010344,-1.4515638,57.423096,279.50513,6.35042,375.136,0.337287,13.4525,33.352,23.7859
1980-03-08 09:29:33,1,1.11429,6.05714,4.44286,0.245781,1,1,46490.9,32312.9,1692,0.97010195,-1.4516249,57.411133,279.50488,5.44311,375.166,-5.11295,14.6656,27.7039,23.0965
1980-03-08 09:30:54,1,1.45714,6.22857,4.25714,0.241593,1,1,52577.6,31933.0,1692,0.97010046,-1.4516869,57.395508,279.50488,5.18257,373.55,-1.22153,12.5232,29.4617,22.9603
1980-03-08 09:32:15,1,1.72857,6.05714,4.14286,0.331355,1,1,40138.4,34946.1,1692,0.97009742,-1.4518099,57.383301,279.50439,5.64761,373.262,-7.79618,15.1508,25.7418,24.0191
1980-03-08 09:33:36,1,1.52857,6.14286,4.18571,0.30706,1,1,61267.9,31390.8,1692,0.97009593,-1.4518709,57.371338,279.50415,5.11595,373.366,-1.85002,11.9419,31.8034,22.7645
1980-03-08 09:34:57,1,1.38571,6.05714,4.21429,0.305728,1,1,44878.6,35343.4,1692,0.97009438,-1.4519329,57.359375,279.50391,5.82749,371.492,-5.89466,14.7185,27.2193,24.1553
1980-03-08 09:36:18,1,1.55714,5.94286,4.31429,0.330121,1,1,47449.1,32177.6,1692,0.9700914,-1.4520559,57.347412,279.50366,5.34939,373.065,0.0800567,13.269,27.988,23.0481
1980-03-08 09:37:39,1,1.52857,6.21429,3.82857,0.324509,1,1,41906.2,35436.9,1692,0.97008985,-1.452117,57.335449,279.50342,5.29255,372.405,-7.36944,14.9819,26.3025,24.1872
1980-03-08 09:39:00,1,1.22857,6.11429,4.1,0.221313,1,1,53578.1,32442.5,1692,0.97008687,-1.45224,57.319336,279.50293,5.46791,375.793,-1.2635,16.1905,29.7407,23.1428
1980-03-08 10:52:56,1,-4.0,4.2,-1.1,0.0,1,1,78268.9,55019.7,1692,0.96997654,-1.4567308,56.629395,279.48877,8.75182,378.385,11.4269,18.3426,35.9462,30.1382
1980-03-08 10:54:17,1,-4.34286,3.25714,-1.45714,1.02758,1,1,68047.1,52150.8,1692,0.9699735,-1.4568539,56.617188,279.48828,8.64255,373.437,4.66218,17.9293,33.5168,29.3419
1980-03-08 10:55:38,1,-4.17143,4.35714,-0.614286,0.542481,1,1,99279.8,60894.4,1692,0.96997195,-1.4569159,56.605469,279.48828,8.88912,379.674,17.197,10.1754,40.4845,31.7064
1980-03-08 10:57:00,1,-3.08333,6.58333,1.48333,1.06654,1,1,98212.3,56217.4,1692,0.96996897,-1.4570389,56.593262,279.48779,6.35962,372.304,-8.42072,6.16794,40.2662,30.4644
1980-03-08 10:58:21,1,-1.71429,7.37143,-0.257143,1.25357,1,1,39399.1,43606.3,1692,0.96996742,-1.4570999,56.577393,279.48755,4.60673,381.24,-9.98354,10.4139,25.5036,26.8307
1980-03-08 10:59:42,1,-1.1,7.37143,1.77143,0.981877,1,1,84208.5,51634.6,1692,0.96996593,-1.4571619,56.56543,279.4873,6.97072,375.191,4.20073,17.94,37.2851,29.1963
1980-03-08 11:01:03,1,-0.628571,7.91429,2.71429,0.264961,1,1,56421.0,46320.7,1692,0.96996289,-1.4572849,56.553467,279.48706,4.92187,374.438,-11.359,17.7667,30.5196,27.6532
1980-03-08 11:02:24,1,-0.816667,7.6,3.06667,0.557026,1,1,64677.7,51360.7,1692,0.9699614,-1.4573469,56.541504,279.48682,5.45495,377.703,-2.93198,17.6637,32.6765,29.1188
1980-03-08 11:03:45,1,-0.757143,7.61429,3.72857,0.424264,1,1,82236.4,50862.6,1692,0.96995986,-1.457408,56.529541,279.48657,5.49815,375.13,-10.9309,15.8894,36.846,28.9772
1980-03-08 11:05:06,1,-1.24286,7.82857,3.04286,0.470345,1,1,62374.1,50097.5,1692,0.96995682,-1.457531,56.517578,279.48633,5.46132,380.808,-3.03198,16.4903,32.0893,28.7585
1980-03-08 11:06:27,1,-1.58571,8.02857,2.82857,0.345821,1,1,40913.8,46661.1,1692,0.96995533,-1.457593,56.501709,279.48608,5.12013,377.329,-10.5384,17.5883,25.9892,27.7546
1980-03-08 11:07:48,1,-1.61429,8.21429,2.88571,0.33503,1,1,59359.0,48019.5,1692,0.96995378,-1.457654,56.489746,279.48584,6.03878,379.99,-1.62393,15.1219,31.3041,28.1557
1980-03-08 11:09:09,1,-2.31429,8.05714,2.34286,0.27848,1,1,29736.8,42328.3,1692,0.9699508,-1.457777,56.477539,279.48535,5.24185,379.067,-9.43881,18.7927,22.1567,26.4346
1980-03-08 11:13:12,1,-1.78571,8.25714,2.82857,0.282843,1,1,56862.6,39838.0,1692,0.96996039,-1.3107902,56.358856,279.40182,6.0999,381.46,0.468487,16.9197,30.6388,25.6452
1980-03-08 11:14:33,1,-1.64286,8.34286,3.28571,0.257143,1,1,40815.7,42977.6,1692,0.96995831,-1.3108672,56.342926,279.40152,5.17383,380.689,-8.68033,17.0816,25.958,26.6366
1980-03-08 11:15:26,1,-2.54286,7.92857,3.32857,0.252336,1,1,33849.9,49164.2,1692,0.96994168,-1.4581461,56.417969,279.48438,5.15359,379.191,-10.9795,17.8785,23.6394,28.4893
1980-03-08 11:15:54,1,-2.64286,7.88571,3.38571,0.319438,1,1,48840.1,36189.9,1692,0.96994168,-1.4581461,56.414063,279.48438,5.62994,389.481,-0.3406,15.0974,28.3953,24.4428